Bloomington, IL

11:49 AM CDT on June 26, 2017 (GMT -0500)
Central Ill Regional

Weather History for KBMI - February, 2013

Change the Weather History Date:

Friday, February 15, 2013

  Actual Average Record
Temperature  
Mean Temperature 27 °F -  
Max Temperature 33 °F 34 °F 57 °F (1999)
Min Temperature 20 °F 24 °F -4 °F (2014)
Degree Days  
Heating Degree Days 38    
Moisture  
Dew Point 20 °F    
Average Humidity 70    
Maximum Humidity 93    
Minimum Humidity 40    
Precipitation  
Precipitation 0.00 in - - ()
Sea Level Pressure  
Sea Level Pressure 30.17 in    
Wind  
Wind Speed 12 mph (NW)    
Max Wind Speed 18 mph    
Max Gust Speed 21 mph    
Visibility 10 miles    
Events      
Averages and records for this station are not official NWS values.
T = Trace of Precipitation, MM = Missing Value Source: NWS Daily Summary

Daily Weather History Graph

Daily Weather History Graph

Search for Another Location

Airport or City:

Trip Planner

Search our weather history database for the weather conditions in past years. The results will help you decide how hot, cold, wet, or windy it might be!

Date:

Astronomy

Feb. 15, 2013 Rise Set
Actual Time 6:48 AM CST 5:31 PM CST
Civil Twilight 6:20 AM CST 5:59 PM CST
Nautical Twilight 5:49 AM CST 6:31 PM CST
Astronomical Twilight 5:17 AM CST 7:02 PM CST
Moon 9:23 AM CST (2/15) 11:33 PM CST (2/15)
Length of Visible Light 11h 38m
Length of Day
10h 42m
Waxing Crescent, 30% of the Moon is Illuminated
Feb 15
Waxing Crescent
Feb 17
First Quarter
Feb 25
Full
Mar 4
Last Quarter
Mar 11
New

Hourly Weather History & Observations

Time (CST) Temp. Windchill Dew Point Humidity Pressure Visibility Wind Dir Wind Speed Gust Speed Precip Events Conditions
12:11 AM 33.8 °F 25.3 °F 28.4 °F 81% 30.01 in 10.0 mi West 11.5 mph - N/A   Scattered Clouds
12:44 AM 33.8 °F 27.0 °F 30.2 °F 87% 30.02 in 10.0 mi WNW 8.1 mph - N/A   Mostly Cloudy
12:56 AM 32.9 °F 25.9 °F 30.0 °F 89% 30.06 in 10.0 mi WNW 8.1 mph - N/A   Overcast
1:16 AM 33.8 °F 26.4 °F 30.2 °F 87% 30.02 in 10.0 mi West 9.2 mph - N/A   Overcast
1:31 AM 33.8 °F 26.4 °F 30.2 °F 87% 30.03 in 9.0 mi West 9.2 mph - N/A   Overcast
1:56 AM 32.9 °F 24.7 °F 31.1 °F 93% 30.07 in 7.0 mi WNW 10.4 mph - N/A   Overcast
2:36 AM 32.0 °F 22.5 °F 28.4 °F 87% 30.04 in 10.0 mi WNW 12.7 mph - 0.00 in   Overcast
2:42 AM 32.0 °F 22.5 °F 28.4 °F 87% 30.05 in 10.0 mi WNW 12.7 mph - 0.00 in   Overcast
2:56 AM 32.0 °F 23.0 °F 28.0 °F 85% 30.09 in 10.0 mi NW 11.5 mph - 0.00 in   Overcast
3:37 AM 30.2 °F 18.1 °F 26.6 °F 86% 30.05 in 10.0 mi NW 18.4 mph - N/A   Overcast
3:56 AM 30.0 °F 19.1 °F 26.1 °F 85% 30.10 in 10.0 mi NW 15.0 mph - N/A   Overcast
4:56 AM 29.1 °F 18.4 °F 26.1 °F 88% 30.13 in 10.0 mi NW 13.8 mph - N/A   Overcast
6:56 AM 27.1 °F 14.5 °F 22.1 °F 81% 30.17 in 10.0 mi NW 17.3 mph 20.7 mph 0.00 in   Mostly Cloudy
7:56 AM 27.1 °F 16.4 °F 21.0 °F 78% 30.21 in 10.0 mi NW 12.7 mph - 0.00 in   Overcast
8:05 AM 26.6 °F 15.7 °F 21.2 °F 80% 30.16 in 10.0 mi NW 12.7 mph - 0.00 in   Overcast
8:56 AM 27.1 °F 15.4 °F 21.0 °F 78% 30.23 in 10.0 mi NW 15.0 mph - 0.00 in   Overcast
9:56 AM 28.0 °F 15.7 °F 19.0 °F 69% 30.24 in 10.0 mi NW 17.3 mph - N/A   Mostly Cloudy
10:42 AM 28.4 °F 17.5 °F 15.8 °F 59% 30.20 in 10.0 mi NNW 13.8 mph - N/A   Partly Cloudy
10:56 AM 29.1 °F 17.9 °F 14.0 °F 53% 30.25 in 10.0 mi NNW 15.0 mph - N/A   Clear
11:56 AM 30.0 °F 18.7 °F 13.1 °F 49% 30.26 in 10.0 mi NNW 16.1 mph - N/A   Clear
12:56 PM 32.0 °F 21.6 °F 12.0 °F 44% 30.23 in 10.0 mi North 15.0 mph - N/A   Clear
1:56 PM 32.9 °F 23.7 °F 12.0 °F 42% 30.23 in 10.0 mi NNW 12.7 mph - N/A   Clear
2:56 PM 32.9 °F 23.7 °F 11.1 °F 40% 30.23 in 10.0 mi NW 12.7 mph - N/A   Clear
3:56 PM 32.9 °F 22.4 °F 12.0 °F 42% 30.24 in 10.0 mi NW 16.1 mph - N/A   Clear
4:56 PM 32.0 °F 22.5 °F 11.1 °F 42% 30.24 in 10.0 mi NW 12.7 mph - N/A   Mostly Cloudy
5:56 PM 29.1 °F 18.9 °F 13.1 °F 51% 30.25 in 10.0 mi WNW 12.7 mph - N/A   Clear
6:56 PM 28.0 °F 17.0 °F 13.1 °F 54% 30.26 in 10.0 mi WNW 13.8 mph - N/A   Partly Cloudy
7:56 PM 26.1 °F 15.0 °F 13.1 °F 58% 30.27 in 10.0 mi NW 12.7 mph - N/A   Clear
8:56 PM 24.1 °F 11.0 °F 14.0 °F 65% 30.27 in 10.0 mi NW 16.1 mph - N/A   Clear
9:56 PM 22.1 °F 11.3 °F 14.0 °F 71% 30.27 in 10.0 mi NW 10.4 mph - N/A   Clear
10:56 PM 21.0 °F 8.6 °F 12.0 °F 68% 30.26 in 10.0 mi NW 12.7 mph - N/A   Clear
11:56 PM 20.1 °F 9.5 °F 12.0 °F 71% 30.26 in 10.0 mi NW 9.2 mph - N/A   Clear